| time (UTC) | temp C | wind direction | speed KPH | gust KPH | rain 1hr cm | rain 24hr cm | rain mn cm | humidity % | barometer mb |
| 20260508114116 | 7 | 270 | 9.7 | 20.9 | 0.00 | 0.00 | 0.33 | 65 | 1006.0 |
| 20260508113608 | 7 | 270 | 12.9 | 20.9 | 0.00 | 0.00 | 0.33 | 66 | 1006.2 |
| 20260508113056 | 7 | 270 | 12.9 | 22.5 | 0.00 | 0.00 | 0.33 | 64 | 1006.0 |
| 20260508112545 | 6 | 292 | 14.5 | 22.5 | 0.00 | 0.00 | 0.33 | 64 | 1006.1 |
| 20260508112036 | 6 | 270 | 11.3 | 27.4 | 0.00 | 0.00 | 0.33 | 65 | 1005.8 |
| 20260508111526 | 7 | 247 | 12.9 | 27.4 | 0.00 | 0.00 | 0.33 | 65 | 1005.6 |
| 20260508111015 | 7 | 247 | 12.9 | 25.7 | 0.00 | 0.00 | 0.33 | 65 | 1005.7 |
| 20260508110509 | 7 | 247 | 12.9 | 24.1 | 0.00 | 0.00 | 0.33 | 64 | 1005.7 |
| 20260508105908 | 7 | 270 | 11.3 | 29.0 | 0.00 | 0.00 | 0.33 | 65 | 1005.6 |
| 20260508105349 | 7 | 270 | 12.9 | 29.0 | 0.00 | 0.00 | 0.33 | 64 | 1005.6 |
| 20260508104838 | 7 | 292 | 12.9 | 29.0 | 0.00 | 0.00 | 0.33 | 64 | 1005.6 |
| 20260508104329 | 7 | 270 | 12.9 | 25.7 | 0.00 | 0.00 | 0.33 | 63 | 1005.6 |
| 20260508103818 | 7 | 247 | 11.3 | 25.7 | 0.00 | 0.00 | 0.33 | 64 | 1005.4 |
| 20260508103309 | 7 | 247 | 14.5 | 25.7 | 0.00 | 0.00 | 0.33 | 64 | 1005.6 |
| 20260508102248 | 7 | 270 | 12.9 | 22.5 | 0.00 | 0.00 | 0.33 | 63 | 1005.5 |
| 20260508101739 | 7 | 270 | 12.9 | 24.1 | 0.00 | 0.00 | 0.33 | 63 | 1005.7 |
| 20260508100717 | 7 | 247 | 11.3 | 17.7 | 0.00 | 0.00 | 0.33 | 64 | 1005.3 |
| 20260508100208 | 7 | 247 | 12.9 | 20.9 | 0.00 | 0.00 | 0.33 | 64 | 1005.3 |
| 20260508095147 | 7 | 270 | 12.9 | 17.7 | 0.00 | 0.00 | 0.33 | 64 | 1005.1 |
| 20260508094634 | 6 | 270 | 12.9 | 22.5 | 0.00 | 0.00 | 0.33 | 63 | 1005.3 |
| 20260508094126 | 6 | 270 | 11.3 | 22.5 | 0.00 | 0.00 | 0.33 | 64 | 1004.8 |
| 20260508093618 | 6 | 247 | 12.9 | 20.9 | 0.00 | 0.00 | 0.33 | 66 | 1004.9 |
| 20260508093107 | 6 | 247 | 12.9 | 20.9 | 0.00 | 0.00 | 0.33 | 65 | 1004.9 |
| 20260508092557 | 6 | 270 | 9.7 | 17.7 | 0.00 | 0.00 | 0.33 | 66 | 1004.7 |
| 20260508092047 | 6 | 270 | 12.9 | 17.7 | 0.00 | 0.00 | 0.33 | 65 | 1004.7 |
| 20260508091536 | 6 | 247 | 9.7 | 17.7 | 0.00 | 0.00 | 0.33 | 65 | 1004.6 |
| 20260508091026 | 6 | 270 | 11.3 | 17.7 | 0.00 | 0.00 | 0.33 | 65 | 1004.5 |
| 20260508090519 | 6 | 270 | 12.9 | 17.7 | 0.00 | 0.00 | 0.33 | 65 | 1004.4 |
| 20260508090006 | 6 | 247 | 9.7 | 17.7 | 0.00 | 0.00 | 0.33 | 65 | 1004.5 |
| 20260508085456 | 6 | 270 | 8.0 | 17.7 | 0.00 | 0.00 | 0.33 | 64 | 1004.6 |
| 20260508084945 | 6 | 270 | 9.7 | 17.7 | 0.00 | 0.00 | 0.33 | 64 | 1004.6 |
| 20260508084436 | 6 | 270 | 12.9 | 17.7 | 0.00 | 0.00 | 0.33 | 64 | 1004.7 |
| 20260508083926 | 6 | 270 | 11.3 | 17.7 | 0.00 | 0.00 | 0.33 | 65 | 1004.6 |
| 20260508083415 | 6 | 270 | 8.0 | 17.7 | 0.00 | 0.00 | 0.33 | 64 | 1004.6 |
| 20260508082908 | 6 | 270 | 11.3 | 17.7 | 0.00 | 0.00 | 0.33 | 64 | 1004.7 |
| 20260508082355 | 6 | 270 | 12.9 | 17.7 | 0.00 | 0.00 | 0.33 | 64 | 1004.7 |
| 20260508081846 | 6 | 247 | 9.7 | 17.7 | 0.00 | 0.00 | 0.33 | 63 | 1004.5 |
| 20260508080310 | 6 | 270 | 8.0 | 14.5 | 0.00 | 0.00 | 0.33 | 64 | 1004.6 |
| 20260508060258 | 7 | 270 | 11.3 | 0.0 | 0.00 | 0.00 | 0.33 | 65 | 1004.9 |
| 20260508055623 | 7 | 270 | 8.0 | 22.5 | 0.00 | 0.00 | 0.33 | 66 | 1004.8 |
| 20260508055116 | 7 | 247 | 12.9 | 24.1 | 0.00 | 0.00 | 0.33 | 66 | 1004.9 |
| 20260508054212 | 7 | 225 | 12.9 | 20.9 | 0.00 | 0.00 | 0.33 | 70 | 1005.2 |
| 20260508053542 | 7 | 270 | 11.3 | 17.7 | 0.00 | 0.00 | 0.33 | 70 | 1005.2 |
| 20260508053033 | 7 | 270 | 9.7 | 17.7 | 0.00 | 0.00 | 0.33 | 72 | 1005.2 |
| 20260508052525 | 7 | 270 | 8.0 | 20.9 | 0.00 | 0.00 | 0.33 | 72 | 1005.2 |
| 20260508052015 | 7 | 270 | 8.0 | 20.9 | 0.00 | 0.00 | 0.33 | 71 | 1005.1 |
| 20260508051502 | 7 | 270 | 11.3 | 17.7 | 0.00 | 0.00 | 0.33 | 71 | 1005.1 |